[[{"header":{"parameterUnit":"m.s-1","parameterCategory":1,"la1":30.2991,"la2":30.254,"lo1":-89.0895,"lo2":-89.0444,"dy":0.0017,"dx":0.0017,"nx":28,"ny":28,"refTime":"2025-01-06T03:00:00:Z","depth":0,"parameterNumber":2,"parameterNumberName":"U-component_of_WINDS"},"data":[0,0,0,0,0,0,0,0,0,0,0,0,0,0,0,0,0,0,0,0,0,0,0,0,0,0,0,0,0,0,0,0,0,0,0,0,0,0,0,0,0,0,0,0,0,0,0,0,0,0,0,0,0,0,0,0,0,0,-0.9129,-0.913,0,-0.9242,-0.9243,-0.9245,-0.9231,-0.9229,-0.9227,-0.9226,-0.9343,-0.9348,-0.9353,0,0,0,0,0,0,0,0,0,0,0,0,0,-0.8902,-0.8906,-0.9129,-0.913,-0.9132,-0.9242,-0.9243,-0.9245,-0.9231,-0.9229,-0.9227,-0.9225,-0.9342,-0.9347,-0.9353,0,0,0,0,0,0,0,0,0,0,0,0,0,-0.9006,-0.8907,-0.9129,-0.9138,-0.914,-0.9242,-0.9243,-0.9245,-0.9232,-0.9229,-0.9226,-0.9224,-0.934,-0.9347,-0.9354,-0.9454,0,0,-0.9376,-0.9379,0,0,0,0,0,0,0,0,-0.9,-0.9015,-0.9136,-0.9138,-0.914,-0.922,-0.9206,-0.9315,-0.9233,-0.9197,-0.9226,-0.9222,-0.9304,-0.9314,-0.9342,-0.9459,-0.9464,-0.9377,-0.9381,-0.9384,-0.9386,0,0,0,0,0,0,0,-0.8993,-0.901,-0.9174,-0.9137,-0.914,-0.9137,-0.9149,-0.9227,-0.9265,-0.92,-0.9199,-0.9213,-0.9305,-0.9335,-0.9344,-0.9466,-0.9376,-0.9383,-0.9387,-0.939,-0.9669,-0.9672,0,0,0,0,0,0,-0.8983,-0.9004,-0.917,-0.9177,-0.9062,-0.9143,-0.9156,-0.9197,-0.9264,-0.9271,-0.9215,-0.9212,-0.9324,-0.9336,-0.9348,-0.9469,-0.9384,-0.9391,-0.9395,-0.9666,-0.9669,-0.9673,0,0,0,0,0,0,-0.8978,-0.8998,-0.9166,-0.909,-0.9111,-0.915,-0.9196,-0.9201,-0.923,-0.9275,-0.9282,-0.9238,-0.9322,-0.9338,-0.9427,-0.9473,-0.9394,-0.9401,-0.9662,-0.9667,-0.9671,-0.9711,0,0,0,0,0,0,-0.8972,-0.8997,-0.9035,-0.9091,-0.9115,-0.9243,-0.9198,-0.9205,-0.9242,-0.9239,-0.9299,-0.9306,-0.9321,-0.9416,-0.9434,-0.9481,-0.9406,-0.9658,-0.9664,-0.967,-0.9706,-0.9716,-0.9725,0,0,0,0,0,-0.8964,-0.9043,-0.9037,-0.9057,-0.9164,-0.9245,-0.9259,-0.9274,-0.9246,-0.9285,-0.9314,-0.9304,-0.9464,-0.9425,-0.9446,-0.9496,-0.9655,-0.9663,-0.9669,-0.9701,-0.9714,-0.9725,0,0,0,0,0,0,-0.8992,-0.905,-0.9045,-0.9144,-0.919,-0.9243,-0.9293,-0.9288,-0.9343,-0.9338,-0.9355,-0.9368,-0.9458,-0.9485,-0.9441,-0.9594,-0.9556,-0.9567,-0.9574,-0.9586,-0.9596,-0.9588,-0.9412,0,0,0,0,0,-0.901,-0.907,-0.9118,-0.9201,-0.9224,-0.9254,-0.929,-0.9297,-0.9346,-0.9365,-0.94,-0.9448,-0.9509,-0.9549,-0.9607,-0.9709,-0.9721,-0.9753,-0.9763,-0.977,-0.978,-0.9835,-0.9849,-0.9695,-0.9695,-0.9695,0,0,-0.9047,-0.9086,-0.9124,-0.9207,-0.9244,-0.9306,-0.9271,-0.9339,-0.9385,-0.9376,-0.9462,-0.9489,-0.9543,-0.9638,-0.9682,-0.9664,-0.9825,-0.9779,-0.9785,-0.9791,-0.9844,-0.9858,-0.9871,-0.97,-0.9699,-0.9698,0,0,-0.9147,-0.9183,-0.9256,-0.9292,-0.9347,-0.9366,-0.9383,-0.9437,-0.9454,-0.954,-0.9534,-0.9589,-0.9694,-0.9732,-0.9766,-0.9877,-0.987,-0.9896,-0.9948,-1.0001,-1.0013,-1.0024,-1.0063,-1.0077,-0.9905,-0.9905,-0.9905,0,-0.9187,-0.9281,-0.9294,-0.9362,-0.9399,-0.9391,-0.9464,-0.9499,-0.9571,-0.9596,-0.9574,-0.9704,-0.974,-0.9844,-0.9871,-0.9898,-0.9918,-0.989,-1.001,-1.0021,-1.0031,-1.0069,-1.0084,-0.9908,-0.9908,-0.9907,-0.9907,0,-0.9327,-0.9392,-0.9444,-0.9512,-0.9554,-0.9625,-0.9648,-0.9689,-0.9691,-0.9713,-0.98,-0.9842,-0.9908,-0.9933,-0.9937,-1.0037,-1.0024,-1.0006,-0.9968,-1.0048,-1.0084,-1.0099,-0.9912,-0.9911,-0.991,-0.9909,0,0,-0.9451,-0.9523,-0.9542,-0.9572,-0.9631,-0.9681,-0.975,-0.9814,-0.9849,-0.9898,-0.9956,-1.0044,-1.0027,-1.0064,-1.0072,-1.0118,-1.0203,-1.0095,-1.0096,-1.0114,-1.0315,-1.0329,-1.0346,-1.0198,-1.0201,-1.0203,-1.0311,0,-0.9558,-0.968,-0.9692,-0.9802,-0.9862,-0.9854,-0.9914,-0.9957,-0.9978,-1.0031,-1.0054,-1.0116,-1.0089,-1.0111,-1.0157,-1.0184,-1.0244,-1.0176,-1.0253,-1.0256,-1.0241,-1.0365,-1.038,-1.048,-1.0325,-1.0327,-1.0329,0,-0.9699,-0.975,-0.9866,-0.9914,-0.994,-0.9994,-1.0052,-1.0103,-1.0151,-1.0162,-1.0203,-1.0204,-1.0275,-1.0232,-1.033,-1.0283,-1.0315,-1.0333,-1.0337,-1.0346,-1.0298,-1.0377,-1.0512,-1.0527,-1.0351,-1.035,-1.0348,0,-0.9778,-0.9876,-0.9957,-0.9983,-1.0042,-1.008,-1.0106,-1.015,-1.0187,-1.0238,-1.0262,-1.0321,-1.0353,-1.0398,-1.0415,-1.0383,-1.0512,-1.0471,-1.0524,-1.0523,-1.0553,-1.0551,-1.0695,-1.0572,-1.0572,-1.0571,-1.0571,0,-0.9896,-0.9967,-0.9993,-1.0044,-1.0123,-1.0135,-1.0213,-1.0237,-1.0276,-1.033,-1.0327,-1.0378,-1.0396,-1.045,-1.0463,-1.0542,-1.0557,-1.0568,-1.0571,-1.0569,-1.0568,-1.0591,-1.0585,-1.0575,-1.0574,-1.0574,-1.0573,0,-0.9999,-1.0019,-1.0107,-1.0155,-1.0168,-1.0224,-1.0265,-1.0313,-1.0331,-1.04,-1.0417,-1.0447,-1.0511,-1.0531,-1.0608,-1.0616,-1.0708,-1.0704,-1.0692,-1.0693,-1.0744,-1.0739,-1.0909,-1.0932,-1.0793,-1.0795,-1.0796,0,-1.0074,-1.0128,-1.018,-1.0216,-1.0243,-1.0301,-1.0338,-1.0352,-1.0391,-1.0447,-1.0488,-1.055,-1.0601,-1.0702,-1.0731,-1.0789,-1.0787,-1.0842,-1.0796,-1.0792,-1.0788,-1.0785,-1.079,-1.0852,-1.0853,-1.0854,-1.0855,0,-1.0204,-1.0211,-1.0264,-1.0321,-1.0365,-1.041,-1.0454,-1.0484,-1.0503,-1.0547,-1.0611,-1.065,-1.0727,-1.0788,-1.0847,-1.0874,-1.0868,-1.0869,-1.0884,-1.0884,-1.0874,-1.088,-1.0716,-1.0866,-1.0865,-1.0864,-1.0863,-1.0863,-1.0295,-1.0343,-1.0386,-1.0445,-1.0479,-1.052,-1.0567,-1.0591,-1.0644,-1.0707,-1.0712,-1.0781,-1.0824,-1.0902,-1.0931,-1.0985,-1.097,-1.0992,-1.0998,-1.1003,-1.1007,-1.0864,-1.0996,-1.0996,-1.0995,-1.0995,-1.0995,0,-1.0426,-1.0453,-1.0507,-1.0567,-1.0614,-1.0602,-1.0649,-1.0689,-1.0749,-1.079,-1.0839,-1.0912,-1.0971,-1.1003,-1.1062,-1.1099,-1.1097,-1.1114,-1.1112,-1.1118,-1.1018,-1.0999,-1.1114,-1.1114,-1.1114,-1.1114,-1.1114,-1.1114,-1.0499,-1.0578,-1.059,-1.0685,-1.0711,-1.0778,-1.0806,-1.0843,-1.0875,-1.0956,-1.1005,-1.1025,-1.1062,-1.1123,-1.1177,-1.1184,-1.1206,-1.1225,-1.1231,-1.1137,-1.1125,-1.1114,-1.1096,-1.1229,-1.1229,-1.1326,-1.1327,-1.1328]},{"header":{"parameterUnit":"m.s-1","parameterCategory":1,"la1":30.2991,"la2":30.254,"lo1":-89.0895,"lo2":-89.0444,"dy":0.0017,"dx":0.0017,"nx":28,"ny":28,"refTime":"2025-01-06T03:00:00:Z","depth":0,"parameterNumber":3,"parameterNumberName":"V-component_of_WINDS"},"data":[0,0,0,0,0,0,0,0,0,0,0,0,0,0,0,0,0,0,0,0,0,0,0,0,0,0,0,0,0,0,0,0,0,0,0,0,0,0,0,0,0,0,0,0,0,0,0,0,0,0,0,0,0,0,0,0,0,0,-5.5558,-5.556,0,-5.5702,-5.5704,-5.5705,-5.5647,-5.5644,-5.564,-5.5637,-5.578,-5.5787,-5.5794,0,0,0,0,0,0,0,0,0,0,0,0,0,-5.5228,-5.5234,-5.5558,-5.556,-5.5562,-5.5702,-5.5704,-5.5706,-5.5648,-5.5644,-5.564,-5.5636,-5.5778,-5.5786,-5.5795,0,0,0,0,0,0,0,0,0,0,0,0,0,-5.5371,-5.5236,-5.5558,-5.555,-5.5551,-5.5701,-5.5704,-5.5706,-5.5649,-5.5644,-5.5639,-5.5634,-5.5775,-5.5785,-5.5796,-5.5962,0,0,-5.5828,-5.5832,0,0,0,0,0,0,0,0,-5.5363,-5.5384,-5.5549,-5.5551,-5.5552,-5.5652,-5.564,-5.5792,-5.565,-5.5611,-5.5637,-5.5631,-5.5741,-5.5754,-5.5792,-5.5968,-5.5974,-5.5829,-5.5835,-5.5839,-5.5842,0,0,0,0,0,0,0,-5.5353,-5.5377,-5.5615,-5.5552,-5.5553,-5.5537,-5.5552,-5.5668,-5.5703,-5.5614,-5.561,-5.5628,-5.5741,-5.5782,-5.5795,-5.5976,-5.5828,-5.5838,-5.5844,-5.5848,-5.6292,-5.6297,0,0,0,0,0,0,-5.5344,-5.5369,-5.561,-5.5619,-5.5443,-5.5547,-5.5564,-5.5625,-5.5701,-5.5708,-5.5633,-5.5625,-5.5767,-5.5783,-5.58,-5.5997,-5.5839,-5.5849,-5.5855,-5.6286,-5.6293,-5.6299,0,0,0,0,0,0,-5.5337,-5.5366,-5.5605,-5.5493,-5.5522,-5.5558,-5.5627,-5.563,-5.5671,-5.5715,-5.5721,-5.5669,-5.5764,-5.5785,-5.5921,-5.6001,-5.5854,-5.5863,-5.628,-5.6288,-5.6296,-5.6394,0,0,0,0,0,0,-5.5328,-5.5364,-5.5429,-5.5495,-5.5529,-5.5726,-5.5632,-5.5637,-5.569,-5.5682,-5.5751,-5.5757,-5.5761,-5.5906,-5.5932,-5.6013,-5.5871,-5.6273,-5.6283,-5.6293,-5.6383,-5.6404,-5.6422,0,0,0,0,0,-5.5316,-5.5451,-5.5433,-5.5462,-5.5611,-5.5731,-5.5749,-5.5753,-5.5697,-5.5761,-5.5789,-5.5755,-5.5988,-5.592,-5.5949,-5.6034,-5.6268,-5.628,-5.6292,-5.6375,-5.64,-5.6422,0,0,0,0,0,0,-5.5392,-5.5459,-5.544,-5.56,-5.566,-5.5721,-5.5802,-5.578,-5.5856,-5.5845,-5.5844,-5.586,-5.6,-5.603,-5.5954,-5.6197,-5.6119,-5.6138,-5.6172,-5.6196,-5.6215,-5.6205,-5.588,0,0,0,0,0,-5.5428,-5.5521,-5.5574,-5.571,-5.5741,-5.5767,-5.5819,-5.5816,-5.5877,-5.5902,-5.594,-5.6,-5.6086,-5.6143,-5.6225,-5.6387,-5.64,-5.646,-5.6479,-5.6495,-5.6511,-5.6596,-5.6622,-5.634,-5.634,-5.6339,0,0,-5.5502,-5.555,-5.5609,-5.5726,-5.5773,-5.5867,-5.5789,-5.5892,-5.5962,-5.5917,-5.6048,-5.6078,-5.6144,-5.6293,-5.6361,-5.6323,-5.6591,-5.651,-5.6523,-5.653,-5.6611,-5.6638,-5.6662,-5.6348,-5.6347,-5.6345,0,0,-5.5686,-5.5732,-5.585,-5.5897,-5.5968,-5.5984,-5.6012,-5.6075,-5.6093,-5.6225,-5.6192,-5.6273,-5.6423,-5.6471,-5.6515,-5.6713,-5.6683,-5.6739,-5.684,-5.6923,-5.6945,-5.6965,-5.7034,-5.7059,-5.6755,-5.6755,-5.6755,0,-5.5769,-5.5912,-5.5913,-5.6019,-5.607,-5.6034,-5.6152,-5.6197,-5.6291,-5.6326,-5.6282,-5.6467,-5.651,-5.6668,-5.6716,-5.6754,-5.6784,-5.6732,-5.6942,-5.6962,-5.698,-5.7046,-5.7072,-5.6762,-5.6761,-5.676,-5.676,0,-5.6009,-5.6108,-5.6194,-5.6286,-5.6346,-5.6458,-5.6473,-5.6534,-5.6525,-5.6544,-5.6676,-5.6725,-5.6815,-5.6853,-5.6845,-5.701,-5.6984,-5.6942,-5.6863,-5.7014,-5.7075,-5.71,-5.677,-5.6768,-5.6766,-5.6765,0,0,-5.6246,-5.6335,-5.6367,-5.6406,-5.6481,-5.6556,-5.6664,-5.6753,-5.6804,-5.6869,-5.6958,-5.7084,-5.7044,-5.7094,-5.7091,-5.7164,-5.7315,-5.7112,-5.7114,-5.7147,-5.7496,-5.7527,-5.7556,-5.7296,-5.73,-5.7304,-5.749,0,-5.6434,-5.6625,-5.6628,-5.6803,-5.6892,-5.6858,-5.6952,-5.7006,-5.7026,-5.7104,-5.7125,-5.7214,-5.7156,-5.7185,-5.7256,-5.7282,-5.7385,-5.7268,-5.7376,-5.738,-5.736,-5.7589,-5.7622,-5.7795,-5.7514,-5.7518,-5.7521,0,-5.668,-5.6752,-5.6936,-5.6995,-5.7032,-5.7117,-5.7197,-5.7272,-5.7331,-5.7341,-5.7395,-5.738,-5.7487,-5.7405,-5.7551,-5.7472,-5.7516,-5.7534,-5.7541,-5.7551,-5.746,-5.7603,-5.7851,-5.7876,-5.7559,-5.7556,-5.7554,0,-5.6832,-5.6976,-5.7104,-5.7139,-5.7211,-5.7271,-5.7303,-5.7358,-5.741,-5.7479,-5.7512,-5.7593,-5.7637,-5.7698,-5.7704,-5.7644,-5.785,-5.7769,-5.7858,-5.7858,-5.7903,-5.79,-5.816,-5.7933,-5.7933,-5.7932,-5.7932,0,-5.7041,-5.7155,-5.7173,-5.7252,-5.7376,-5.7377,-5.75,-5.7527,-5.7575,-5.7656,-5.7631,-5.7708,-5.7711,-5.7789,-5.7794,-5.7912,-5.7933,-5.7941,-5.7941,-5.7943,-5.7942,-5.7972,-5.7959,-5.7939,-5.7938,-5.7937,-5.7935,0,-5.7233,-5.725,-5.7387,-5.7443,-5.746,-5.7549,-5.7596,-5.767,-5.7686,-5.779,-5.7814,-5.784,-5.7929,-5.7941,-5.8046,-5.8049,-5.8191,-5.8179,-5.8172,-5.8169,-5.8257,-5.8248,-5.8545,-5.8583,-5.8332,-5.8335,-5.8337,0,-5.7365,-5.7452,-5.7517,-5.757,-5.7606,-5.7692,-5.7744,-5.7747,-5.7803,-5.7875,-5.7939,-5.8027,-5.8097,-5.8241,-5.8268,-5.8347,-5.8335,-5.8434,-5.8347,-5.8346,-5.8335,-5.833,-5.8337,-5.845,-5.8453,-5.8455,-5.8457,0,-5.7598,-5.7601,-5.7679,-5.776,-5.7824,-5.7887,-5.7946,-5.7991,-5.8,-5.8064,-5.8155,-5.821,-5.8316,-5.8402,-5.848,-5.851,-5.8485,-5.8484,-5.8509,-5.8512,-5.8503,-5.8507,-5.8216,-5.8477,-5.8475,-5.8474,-5.8473,-5.8472,-5.7763,-5.7837,-5.7894,-5.798,-5.8025,-5.8081,-5.8152,-5.8177,-5.8254,-5.8342,-5.8338,-5.8438,-5.8492,-5.8593,-5.8629,-5.8706,-5.8674,-5.871,-5.8719,-5.8727,-5.8735,-5.8492,-5.872,-5.872,-5.8719,-5.8719,-5.8718,0,-5.7992,-5.8027,-5.8107,-5.819,-5.8258,-5.8229,-5.8292,-5.835,-5.8439,-5.8492,-5.8561,-5.8664,-5.8747,-5.878,-5.886,-5.8915,-5.8905,-5.8935,-5.8931,-5.8938,-5.8761,-5.8731,-5.8942,-5.8942,-5.8942,-5.8942,-5.8942,-5.8942,-5.812,-5.8243,-5.8253,-5.8396,-5.8429,-5.8528,-5.8566,-5.8616,-5.8658,-5.8776,-5.8844,-5.8865,-5.8909,-5.8992,-5.9065,-5.9072,-5.9102,-5.9138,-5.914,-5.8973,-5.8951,-5.8929,-5.8901,-5.9145,-5.9145,-5.931,-5.9312,-5.9313]}]]